Hourly Data Report for October 28, 2014

All times are specified in Local Standard Time (LST). Add 1 hour to adjust for Daylight Saving Time where and when it is observed.

HALL BEACH A
NUNAVUT

68°46'33.000" N
81°14'33.000" W
9.10 m
2402354
71293
YUX

Download Data

Hourly Data (October 2014)
Hourly Data Report for October 28, 2014
Temp Definition
°C
Dew Point Temp Definition
°C
Rel Hum Definition
%
Wind Dir Definition
10's deg

Wind Spd Definition
km/h
Visibility Definition
km
Stn Press Definition
kPa
Hmdx Definition


Wind Chill Definition


Weather Definition


TIME
00:00 Legend Double Dagger -5.8 -6.6 94 5 26 4.8 101.02   -14 Snow
01:00 Legend Double Dagger -6.1 -6.9 94 3 28 12.9 100.99   -14 Snow
02:00 Legend Double Dagger -5.8 -6.8 93 3 28 16.1 100.96   -14 Snow
03:00 Legend Double Dagger -5.9 -6.9 93 2 28 16.1 100.93   -14 Snow
04:00 Legend Double Dagger -6.1 -7.1 93 1 32 16.1 100.90   -15 Snow
05:00 Legend Double Dagger -6.4 -7.2 94 36 34 16.1 100.87   -15 Snow
06:00 Legend Double Dagger -6.7 -7.6 93 36 39 9.7 100.84   -16 Snow
07:00 Legend Double Dagger -8.0 -8.8 94 35 41 8.1 100.82   -18 Fog
08:00 Legend Double Dagger -9.0 -9.9 93 35 39 6.4 100.80   -19 Fog
09:00 Legend Double Dagger -10.1 -11.0 93 34 41 9.7 100.76   -21 Fog
10:00 Legend Double Dagger -10.0 -11.1 92 34 39 12.9 100.78   -21 LegendNANA
11:00 Legend Double Dagger -10.0 -11.5 89 34 39 9.7 100.75   -21 Fog
12:00 Legend Double Dagger -9.6 -11.2 88 33 37 16.1 100.75   -20 LegendNANA
13:00 Legend Double Dagger -9.8 -11.1 90 34 37 14.5 100.74   -20 LegendNANA
14:00 Legend Double Dagger -10.7 -12.0 90 33 32 16.1 100.76   -21 LegendNANA
15:00 Legend Double Dagger -11.1 -12.4 90 33 41 14.5 100.77   -22 LegendNANA
16:00 Legend Double Dagger -12.7 -14.2 89 31 35 14.5 100.79   -24 LegendNANA
17:00 Legend Double Dagger -13.2 -14.5 90 31 37 12.9 100.79   -25 LegendNANA
18:00 Legend Double Dagger -14.0 -15.4 89 31 34 16.1 100.82   -25 LegendNANA
19:00 Legend Double Dagger -14.0 -15.4 89 31 37 11.3 100.81   -26 LegendNANA
20:00 Legend Double Dagger -13.8 -15.2 89 31 37 12.9 100.82   -25 LegendNANA
21:00 Legend Double Dagger -13.4 -14.8 89 31 39 11.3 100.81   -25 LegendNANA
22:00 Legend Double Dagger -13.1 -14.6 89 31 41 9.7 100.81   -25 Fog
23:00 Legend Double Dagger -12.8 -14.3 89 31 43 4.8 100.82   -25 Fog

Notes on Data Quality.

Legend

  • E = Estimated
  • M = Missing
  • NA = Not Available
  • ‡ = Partner data that is not subject to review by the National Climate Archives
Date modified: